Change the Weather History Date:

Monday, May 12, 2014

  Actual Average Record
Temperature  
Mean Temperature 74 °F -  
Max Temperature 87 °F 86 °F 96 °F (2011)
Min Temperature 62 °F 60 °F 53 °F (2006)
Cooling Degree Days 10    
Growing Degree Days 24 (Base 50)    
Moisture  
Dew Point 63 °F    
Average Humidity 69    
Maximum Humidity 88    
Minimum Humidity 43    
Precipitation  
Precipitation 0.00 in - - ()
Sea Level Pressure  
Sea Level Pressure 30.13 in    
Wind  
Wind Speed 2 mph (ESE)    
Max Wind Speed 12 mph    
Max Gust Speed -    
Visibility 9 miles    
Events      
Averages and records for this station are not official NWS values.
T = Trace of Precipitation, MM = Missing Value Source: NWS Daily Summary

Daily Weather History Graph

Daily Weather History Graph

Search for Another Location

Airport or City:

Trip Planner

Search our weather history database for the weather conditions in past years. The results will help you decide how hot, cold, wet, or windy it might be!

Date:

Astronomy

May. 12, 2014 Rise Set
Actual Time 6:38 AM EDT 8:11 PM EDT
Civil Twilight 6:13 AM EDT 8:37 PM EDT
Nautical Twilight 5:42 AM EDT 9:08 PM EDT
Astronomical Twilight 5:10 AM EDT 9:40 PM EDT
Moon 6:17 PM EDT (5/12) 5:05 AM EDT (5/12)
Length of Visible Light 14h 24m
Length of Day
13h 33m
Waxing Gibbous, 95% of the Moon is Illuminated
May 12
Waxing Gibbous
May 14
Full
May 21
Last Quarter
May 28
New
Jun 5
First Quarter

Hourly Weather History & Observations

Time (EDT) Temp. Heat Index Dew Point Humidity Pressure Visibility Wind Dir Wind Speed Gust Speed Precip Events Conditions
12:15 AM 73.4 °F - 64.4 °F 73% 30.15 in 10.0 mi Calm Calm - N/A   Clear
12:35 AM 73.4 °F - 64.4 °F 73% 30.15 in 10.0 mi Calm Calm - N/A   Clear
12:55 AM 71.6 °F - 64.4 °F 78% 30.15 in 10.0 mi Calm Calm - N/A   Clear
1:15 AM 71.6 °F - 64.4 °F 78% 30.14 in 10.0 mi East 3.5 mph - N/A   Clear
1:35 AM 71.6 °F - 64.4 °F 78% 30.13 in 10.0 mi Calm Calm - N/A   Clear
1:55 AM 71.6 °F - 64.4 °F 78% 30.13 in 10.0 mi Calm Calm - N/A   Clear
2:15 AM 69.8 °F - 62.6 °F 78% 30.13 in 10.0 mi Calm Calm - N/A   Clear
2:35 AM 69.8 °F - 62.6 °F 78% 30.13 in 10.0 mi Calm Calm - N/A   Clear
2:55 AM 69.8 °F - 62.6 °F 78% 30.12 in 10.0 mi Calm Calm - N/A   Clear
3:15 AM 69.8 °F - 62.6 °F 78% 30.11 in 10.0 mi Calm Calm - N/A   Clear
3:35 AM 68.0 °F - 62.6 °F 83% 30.11 in 10.0 mi Calm Calm - N/A   Clear
3:55 AM 68.0 °F - 62.6 °F 83% 30.11 in 10.0 mi Calm Calm - N/A   Clear
4:15 AM 66.2 °F - 60.8 °F 83% 30.11 in 10.0 mi Calm Calm - N/A   Clear
4:35 AM 66.2 °F - 60.8 °F 83% 30.11 in 10.0 mi Calm Calm - N/A   Clear
4:55 AM 66.2 °F - 60.8 °F 83% 30.11 in 10.0 mi Calm Calm - N/A   Clear
5:15 AM 66.2 °F - 60.8 °F 83% 30.11 in 10.0 mi Calm Calm - N/A   Clear
5:35 AM 64.4 °F - 60.8 °F 88% 30.11 in 8.0 mi Calm Calm - N/A   Clear
5:55 AM 64.4 °F - 57.2 °F 77% 30.12 in 0.8 mi Calm Calm - N/A   Unknown
6:15 AM 64.4 °F - 57.2 °F 77% 30.13 in 1.0 mi NNE 3.5 mph - N/A   Clear
6:35 AM 62.6 °F - 57.2 °F 82% 30.14 in 4.0 mi Calm Calm - N/A   Clear
6:50 AM 62.6 °F - 57.2 °F 82% 30.15 in 10.0 mi NNE 4.6 mph - N/A   Clear
7:50 AM 68.0 °F - 62.6 °F 83% 30.17 in 10.0 mi NE 3.5 mph - N/A   Clear
8:50 AM 73.4 °F - 64.4 °F 73% 30.18 in 10.0 mi Calm Calm - N/A   Clear
9:50 AM 78.8 °F - 66.2 °F 65% 30.18 in 10.0 mi SSE 9.2 mph - N/A   Clear
10:50 AM 80.6 °F 82.3 °F 64.4 °F 58% 30.19 in 10.0 mi SSE 11.5 mph - N/A   Scattered Clouds
11:50 AM 82.4 °F 84.6 °F 66.2 °F 58% 30.19 in 10.0 mi South 9.2 mph - N/A   Scattered Clouds
12:50 PM 86.0 °F 86.6 °F 62.6 °F 45% 30.18 in 10.0 mi SE 3.5 mph - N/A   Mostly Cloudy
1:50 PM 86.0 °F 87.3 °F 64.4 °F 48% 30.16 in 10.0 mi South 4.6 mph - N/A   Mostly Cloudy
2:50 PM 86.0 °F 87.3 °F 64.4 °F 48% 30.15 in 10.0 mi SE 5.8 mph - N/A   Mostly Cloudy
3:50 PM 86.0 °F 87.3 °F 64.4 °F 48% 30.13 in 10.0 mi SE 5.8 mph - N/A   Scattered Clouds
4:50 PM 87.8 °F 89.4 °F 64.4 °F 46% 30.12 in 10.0 mi SE 11.5 mph - N/A   Scattered Clouds
5:50 PM 87.8 °F 88.5 °F 62.6 °F 43% 30.10 in 10.0 mi East 11.5 mph - N/A   Scattered Clouds
6:50 PM 84.2 °F 85.0 °F 62.6 °F 48% 30.10 in 10.0 mi ESE 5.8 mph - N/A   Partly Cloudy
7:55 PM 82.4 °F 83.4 °F 62.6 °F 51% 30.11 in 10.0 mi East 6.9 mph - N/A   Clear
8:15 PM 80.6 °F 81.8 °F 62.6 °F 54% 30.11 in 10.0 mi East 6.9 mph - N/A   Clear
8:35 PM 80.6 °F 81.8 °F 62.6 °F 54% 30.12 in 10.0 mi East 4.6 mph - N/A   Clear
8:55 PM 78.8 °F - 62.6 °F 57% 30.12 in 10.0 mi East 4.6 mph - N/A   Clear
9:15 PM 78.8 °F - 62.6 °F 57% 30.13 in 10.0 mi East 4.6 mph - N/A   Clear
9:35 PM 77.0 °F - 62.6 °F 61% 30.13 in 10.0 mi East 4.6 mph - N/A   Clear
9:55 PM 75.2 °F - 64.4 °F 69% 30.14 in 10.0 mi East 4.6 mph - N/A   Clear
10:15 PM 75.2 °F - 64.4 °F 69% 30.14 in 10.0 mi East 3.5 mph - N/A   Clear
10:35 PM 75.2 °F - 64.4 °F 69% 30.15 in 10.0 mi ESE 4.6 mph - N/A   Clear
10:55 PM 73.4 °F - 64.4 °F 73% 30.15 in 10.0 mi East 3.5 mph - N/A   Clear
11:15 PM 73.4 °F - 64.4 °F 73% 30.14 in 10.0 mi Calm Calm - N/A   Clear
11:35 PM 73.4 °F - 64.4 °F 73% 30.13 in 10.0 mi ESE 3.5 mph - N/A   Clear
11:55 PM 73.4 °F - 64.4 °F 73% 30.13 in 10.0 mi Calm Calm - N/A   Clear